SCP
0 0 0 0 0 0 0 0 0 0 0 0 0 0 0 0 0 0 0 0 0 0 0 0 0 0 0 0 0 0 0 0 0 0 0 0 0 0 0 0 0 0 0
0 0 0 0 0 0 0 0 0 0 0 0 0 0 0 0 0 0 0 0 0 0 0 0 0 0 0 0 0 0 0 0 0 0 0 0 0 0 0 0 0 0 0
0 0 0 0 0 0 0 0 0 0 0 0 0 0 0 0 0 0 0 0 0 0 0 0 0 0 0 0 0 0 0 0 0 0 0 0 0 0 0 0 0 0 0
0 0 0 0 0 0 0 0 0 0 0 0 0 0 0 0 0 0 0 0 0 0 0 0 0 0 0 0 0 0 0 0 0 0 0 0 0 0 0 0 0 0 0
0 0 0 0 0 0 0 0 0 0 0 0 0 0 0 0 0 0 0 0 0 0 0 0 0 0 0 0 0 0 0 0 0 0 0 0 0 0 0 0 0 0 0
0 0 0 0 0 0 0 0 0 0 0 0 0 0 0 0 0 0 0 0 0 0 0 0 0 0 0 0 0 0 0 0 0 0 0 0 0 0 0 0 0 0 0
0 0 0 0 0 0 0 0 0 0 0 0 0 0 0 0 0 0 0 0 0 0 0 0 0 0 0 0 0 0 0 0 0 0 0 0 0 0 0 0 0 0 0
0 0 0 0 1 1 0 0 0 0 0 0 0 0 0 0 0 0 0 0 0 0 0 0 0 0 0 0 0 0 0 0 -0 -0 -0 0 0 0 0 0 0 0 0
0 0 0 0 0 1 1 1 1 0 0 0 0 0 0 0 0 0 0 0 0 0 0 0 0 0 0 0 0 0 0 0 -0 -0 -0 -0 0 0 0 0 0 0 0
0 0 0 0 0 0 0 1 1 0 0 0 0 0 0 0 0 0 0 0 0 0 0 0 0 0 0 0 0 0 0 0 0 0 -0 -0 0 0 0 1 1 0 0
0 0 0 0 0 0 0 0 0 0 0 0 0 0 0 0 0 0 0 0 0 0 0 1 1 0 0 0 0 0 0 0 0 0 0 -0 0 0 0 1 1 1 1
0 0 0 0 0 0 0 0 0 0 0 0 0 0 0 0 0 0 0 0 1 1 1 1 1 1 1 0 0 0 0 0 0 0 0 0 0 0 0 1 1 1 1
1 1 0 0 0 0 0 0 0 0 0 0 0 0 0 0 0 0 0 0 1 1 1 1 1 1 1 1 1 0 0 0 0 0 0 0 0 0 0 1 1 1 1
1 1 1 0 0 0 0 0 0 0 0 0 0 0 0 0 0 0 0 0 1 1 1 1 1 1 1 1 1 1 0 0 0 0 0 0 0 0 1 1 1 1 1
2 2 1 1 1 1 1 1 1 1 0 0 1 1 1 1 1 1 1 1 1 1 1 1 1 1 1 1 1 0 0 0 0 0 0 0 0 1 1 1 1 1 1
2 2 2 1 1 1 1 1 1 1 1 1 1 1 1 1 1 1 1 1 1 1 1 1 1 1 1 1 0 0 0 0 0 0 0 0 0 1 1 1 1 1 1
3 3 3 2 2 2 2 2 2 1 1 1 1 1 1 1 1 1 1 1 1 1 1 1 0 0 0 0 0 0 0 0 0 0 0 0 0 1 1 1 1 1 1
3 3 3 3 2 2 2 2 2 2 1 1 1 1 1 1 1 1 1 1 1 1 0 0 0 0 0 0 0 0 0 0 0 0 0 0 0 0 1 1 1 1 1
3 3 3 3 2 2 2 2 2 2 1 1 1 1 1 1 1 1 1 1 0 0 0 0 0 0 0 0 0 0 0 0 0 0 0 0 0 0 0 0 1 1 1
3 3 3 2 2 2 2 2 2 2 1 1 1 1 1 1 1 1 0 0 0 0 0 0 0 0 0 0 0 0 0 0 0 0 0 0 0 0 0 0 0 1 1
2 2 2 2 2 2 2 2 1 1 1 1 1 1 0 0 0 0 0 0 0 0 0 0 0 0 0 0 0 0 0 0 0 0 0 0 0 0 0 0 0 0 0
2 2 1 1 1 1 1 1 1 1 1 1 0 0 0 0 0 0 0 0 0 0 0 0 0 0 0 0 0 0 0 0 0 0 0 0 0 0 0 0 0 0 0
1 1 1 1 1 1 1 1 1 1 1 1 0 0 0 0 0 0 0 0 0 0 0 0 0 0 0 0 0 0 0 0 0 0 0 0 0 0 0 0 0 0 0
1 1 0 0 0 1 1 1 1 1 1 1 1 0 0 0 0 0 0 0 0 0 0 0 0 0 0 0 0 0 0 0 0 0 0 0 0 0 0 0 0 0 0
0 0 0 0 0 0 0 1 1 1 1 1 1 0 0 0 0 0 0 0 0 0 0 0 0 0 0 0 0 0 0 0 0 0 0 0 0 0 0 0 0 0 0
0 0 0 0 0 0 0 0 0 0 0 0 0 0 0 0 0 0 0 0 0 0 0 0 0 0 0 0 0 0 0 0 0 0 0 0 0 0 0 0 0 0 0
Wind_Speed
12 14 19 20 20 19 18 17 17 16 16 15 15 15 15 14 15 15 15 14 14 13 13 12 12 12 12 12 12 13 13 13 12 13 13 13 12 11 10 12 12 9 13
15 16 20 20 20 19 18 17 17 16 16 15 15 14 14 14 14 14 13 13 13 12 12 11 11 11 11 11 11 11 11 11 11 11 11 10 10 9 9 12 12 8 12
18 15 18 20 20 19 18 18 17 16 16 15 15 14 14 13 13 13 12 12 12 12 11 11 10 10 9 9 9 9 9 8 8 9 9 4 5 9 10 13 13 12 12
19 13 15 21 21 20 19 18 17 17 16 15 15 14 14 13 13 12 12 11 11 11 10 10 9 9 9 8 7 7 6 6 6 6 4 4 4 9 11 13 13 12 11
15 12 16 23 21 20 19 18 17 16 16 15 15 14 13 13 12 12 12 11 11 10 10 9 9 9 8 7 7 6 5 5 5 4 2 3 4 10 12 13 13 12 11
13 11 16 22 21 20 19 18 17 16 16 15 15 14 13 13 12 12 12 11 11 10 10 9 9 9 8 8 7 7 6 6 5 3 3 4 5 11 14 14 14 13 12
13 11 14 21 21 20 19 18 17 16 16 15 15 14 13 13 12 12 12 11 11 11 10 10 10 10 9 9 8 8 8 8 4 3 4 4 6 13 16 15 15 15 13
17 13 12 21 21 19 19 18 17 17 16 15 15 14 14 13 13 12 12 12 12 12 11 11 11 11 11 11 10 10 10 9 7 5 4 4 8 14 17 17 16 16 15
15 13 10 12 15 19 18 18 17 16 16 16 15 15 14 14 13 13 13 13 13 13 13 13 13 13 13 12 12 12 12 12 6 4 6 4 8 15 18 17 17 17 16
13 12 10 9 9 9 11 17 17 17 16 16 16 15 15 14 14 14 12 13 14 15 15 15 15 14 14 13 14 14 14 12 7 6 5 6 9 14 18 18 17 17 17
12 11 11 10 9 8 8 13 14 16 16 15 13 16 14 7 7 8 12 15 16 17 17 17 16 16 15 14 15 15 13 5 5 6 5 10 12 14 17 17 17 17 17
15 13 12 12 11 9 9 8 6 8 7 8 6 8 6 5 6 9 11 17 18 19 18 18 18 16 13 6 10 13 6 7 6 6 7 13 14 15 16 17 17 17 17
16 15 14 13 12 11 8 7 5 5 5 6 8 8 6 5 5 6 5 7 10 14 10 10 11 8 7 6 5 5 6 6 5 6 8 14 15 16 17 18 19 17 17
16 16 15 14 12 12 9 7 7 6 5 7 8 9 6 5 5 5 5 5 4 4 5 5 4 7 7 8 7 7 8 6 5 5 7 15 15 16 18 18 18 17 17
16 16 16 14 13 12 10 7 8 7 7 8 6 8 8 6 6 5 4 4 4 4 4 5 5 6 7 7 7 8 8 8 7 6 5 12 14 15 17 18 18 18 18
14 14 15 14 13 10 9 8 7 7 6 6 6 8 9 7 5 4 3 3 3 3 4 4 5 5 5 5 6 7 6 6 6 7 6 7 13 15 16 17 18 18 18
7 6 8 10 9 9 8 8 6 5 5 5 5 6 7 7 6 4 3 3 3 3 3 3 4 3 3 4 5 5 5 5 6 6 6 5 6 12 16 16 17 18 18
5 5 6 6 4 5 5 4 3 3 3 3 3 3 5 6 5 4 2 2 2 2 1 2 2 2 2 2 3 4 4 4 6 6 5 5 5 5 9 16 17 17 18
6 5 3 3 3 3 2 1 1 2 2 2 3 3 4 4 5 4 2 2 2 1 1 1 1 2 2 2 3 4 4 4 5 6 6 6 6 6 5 9 14 15 17
6 5 3 2 1 0 1 1 0 0 0 1 2 4 4 4 5 4 2 2 1 1 1 1 1 1 2 3 3 4 4 5 4 5 6 5 5 7 6 7 6 7 13
6 3 4 3 2 2 2 1 1 2 1 1 2 3 4 4 5 4 3 2 2 1 1 1 1 1 2 1 1 3 4 4 5 5 4 4 5 6 5 5 4 4 4
4 1 3 3 2 2 2 2 1 2 2 2 1 2 3 4 4 4 4 3 2 2 1 1 1 0 1 0 1 1 3 4 3 3 2 3 4 3 4 5 4 5 5
5 5 4 2 1 1 1 1 1 1 1 1 1 1 1 3 4 4 5 4 3 3 2 2 2 2 1 1 1 2 1 2 4 4 3 2 2 2 3 3 5 5 6
7 7 6 5 4 3 3 3 3 2 1 1 1 1 1 1 2 3 4 5 4 3 3 3 3 3 2 2 1 2 3 3 2 4 4 3 3 3 3 3 4 4 5
7 7 6 6 7 6 6 6 5 3 1 1 2 3 2 3 3 3 3 4 4 3 4 4 3 3 3 3 3 2 2 2 3 3 4 4 3 3 3 3 3 3 3
6 6 6 7 7 7 7 7 6 5 5 4 4 3 3 3 3 4 3 2 3 3 4 4 4 4 4 4 3 3 3 3 3 3 4 4 4 4 3 3 3 3 3
Wind_Direction
159 162 160 155 151 147 144 140 137 135 132 130 127 125 123 122 122 124 126 128 128 128 127 125 123 121 119 116 116 116 117 117 118 119 119 118 116 115 120 125 119 116 116
153 159 158 155 153 151 148 145 143 141 139 137 135 133 131 130 129 130 131 133 134 133 131 129 129 127 125 123 122 122 122 122 122 122 123 124 122 116 118 135 125 129 125
149 157 156 155 154 154 152 149 148 147 146 145 143 142 140 139 138 137 138 139 139 139 138 138 137 135 134 133 131 130 129 131 133 134 133 135 137 130 122 130 134 134 132
149 154 155 155 156 156 155 154 153 152 151 151 150 150 148 147 147 146 146 147 148 148 149 149 149 148 148 147 147 147 147 149 153 158 157 169 171 154 143 140 143 143 141
148 153 158 156 157 158 158 158 157 157 156 157 157 157 156 156 156 155 156 157 158 160 161 162 162 163 164 167 170 174 178 181 188 194 203 203 198 175 166 156 154 154 153
149 154 160 158 159 160 161 162 162 162 162 162 163 164 164 164 165 165 166 168 170 172 174 176 178 180 183 187 193 201 207 214 217 217 232 226 198 190 181 171 165 165 166
152 157 161 160 161 162 164 166 167 167 168 168 170 171 172 174 175 175 177 179 182 185 188 190 193 195 198 203 209 217 227 235 231 227 230 227 205 198 190 182 176 174 175
155 159 163 164 164 166 168 170 171 173 174 175 176 178 181 183 185 186 188 191 194 197 200 202 205 206 208 212 216 223 232 242 250 245 237 224 214 205 198 190 185 182 183
156 160 163 166 168 170 172 174 176 178 180 182 184 187 190 193 196 199 200 203 205 208 210 212 214 215 217 218 221 227 233 240 247 256 264 249 225 210 206 198 192 189 189
158 164 166 166 167 170 175 181 183 185 188 190 193 195 198 202 206 210 212 216 218 219 220 221 222 223 224 224 226 231 235 241 241 244 252 257 249 222 214 206 200 197 195
164 171 171 170 170 171 176 187 188 192 196 197 201 204 205 210 214 219 225 224 227 228 227 227 227 228 229 230 232 234 237 232 228 240 243 251 250 236 223 213 207 204 202
173 178 178 177 176 175 184 186 189 197 201 201 202 208 206 204 215 225 233 235 234 234 233 231 231 231 232 231 234 236 234 230 228 236 241 245 246 240 229 219 214 210 208
176 179 181 182 180 181 189 183 191 200 200 208 210 211 210 212 221 231 231 241 239 238 235 234 233 228 225 222 223 224 230 234 231 233 240 243 241 240 232 221 218 214 213
176 182 181 181 181 187 191 189 191 198 201 209 213 211 208 214 222 230 229 229 225 222 218 221 223 225 226 226 226 228 232 231 230 229 240 244 242 239 232 223 218 217 218
180 182 181 181 184 189 192 193 194 201 207 210 206 209 207 208 217 225 230 227 223 213 214 217 225 231 231 230 232 233 234 233 232 230 238 242 240 232 224 222 217 219 221
180 181 181 182 183 185 188 190 195 199 203 202 203 207 205 206 209 211 224 230 226 216 216 215 222 227 230 228 234 236 236 232 230 229 231 239 235 228 225 223 222 223 224
160 158 172 180 181 183 184 185 184 188 187 187 192 194 192 193 199 197 207 222 229 223 215 216 231 229 232 229 236 241 240 236 236 233 231 229 231 231 231 230 229 227 228
118 123 148 165 166 191 181 171 164 161 151 157 159 165 178 179 176 174 184 217 223 216 212 221 233 239 241 238 247 251 248 243 244 240 234 230 226 234 237 235 233 232 233
99 99 110 139 160 208 203 182 169 152 145 154 155 158 173 166 160 157 176 206 213 211 228 245 222 216 239 253 253 252 250 249 248 252 244 239 231 229 231 236 235 233 236
86 98 111 97 103 338 271 248 303 20 172 191 179 174 171 166 157 152 162 183 173 180 252 249 241 239 229 242 265 269 258 255 249 243 245 245 239 235 231 230 228 237 240
67 60 157 162 175 190 219 227 192 240 249 240 221 185 171 167 157 151 153 156 148 163 223 244 234 268 270 251 304 307 292 268 257 249 240 238 242 242 232 225 221 223 238
78 76 122 130 180 197 191 238 201 199 220 227 223 172 168 163 163 162 164 173 171 166 232 271 186 213 277 218 161 325 328 330 319 282 256 240 249 247 243 240 222 216 222
54 52 62 70 69 68 214 213 213 71 46 17 335 259 211 184 178 176 180 184 187 177 197 220 196 177 228 273 187 175 207 277 309 313 305 279 274 264 254 248 237 225 220
49 48 53 45 35 18 23 52 68 75 83 278 276 307 289 247 226 209 194 190 194 191 200 216 193 182 179 235 266 212 199 201 241 305 313 307 296 279 268 257 248 235 223
56 57 54 55 46 35 39 39 47 45 28 346 13 13 341 318 301 274 232 206 201 203 210 214 210 202 192 201 212 222 229 225 212 223 280 302 314 290 273 253 244 240 227
61 60 55 50 41 32 37 36 37 35 20 18 17 7 347 336 337 339 323 255 227 218 217 216 217 218 218 218 217 209 206 211 215 214 249 275 286 283 276 259 241 234 220